Flag for Germany Weather past 2 weeks in Freising, Bavaria, Germany

Now
65 °F

Passing clouds.


Feels Like: 65 °F
Forecast: 48 / 70 °F
Wind: 1 mph from North

Location: Muenchen Flughafen

Current Time: Sep 16, 2014 at 6:20:56 PM

Latest Report: Sep 16, 2014 at 6:00 PM


Visibility: 13 mi

Pressure: 29.97 "Hg

Humidity: 75%

Dew point: 57 °F

Location of FreisingLocation

Historic Weather in Freising — Graph

°F

Freising temperature yesterday

Maximum temperature yesterday: 66 °F (at 6:00 PM)
Minimum temperature yesterday: 52 °F (at 11:00 PM)
Average temperature yesterday: 59 °F

Past Weeks' High & Low Weather Summary

 TemperatureHumidityPressure
High78 °F (Sep 8, 4:00 PM)100% (Sep 5, 5:00 AM)30.16 "Hg (Sep 5, 5:00 AM)
Low49 °F (Sep 10, 7:00 AM)47% (Sep 7, 4:00 PM)29.84 "Hg (Sep 6, 5:00 PM)
Average60 °F86%30.02 "Hg
* Reported Sep 1 5:00 PM — Sep 16 5:00 PM, Freising, Weather by CustomWeather, © 2014

Note: Actual official high and low records may vary slightly from our data, if they occured in-between our weather recording intervals... More about our weather records

Advertising

Freising weather history for previous 24 hours

 ConditionsComfort  
Time TempWeatherWind HumidityBarometerVisibility
5:00 PM
Sep 16
65 °FScattered clouds.2 mph80%29.97 "Hg14 mi
4:00 PM64 °FScattered clouds.2 mph77%29.98 "Hg14 mi
3:00 PM65 °FPartly sunny.2 mph78%29.99 "Hg12 mi
2:00 PM63 °FOvercast.2 mph82%30.01 "Hg9 mi
1:00 PM62 °FLow clouds.2 mph85%30.01 "Hg7 mi
12:00 PM61 °FLow clouds.1 mph89%30.02 "Hg6 mi
11:00 AM59 °FFog.2 mph92%30.03 "Hg4 mi
10:00 AM58 °FLow clouds.2 mph98%30.03 "Hg2 mi
9:00 AM57 °FLow clouds.1 mph100%30.03 "Hg2 mi
8:00 AM56 °FDrizzle. Low clouds.1 mph100%30.02 "Hg1 mi
7:00 AM55 °FFog.1 mph100%30.01 "Hg2 mi
6:00 AM55 °FFog.1 mph100%30.01 "Hg3 mi
5:00 AM56 °FFog.1 mph100%30.01 "Hg3 mi
4:00 AM56 °FOvercast.2 mph100%30.01 "Hg4 mi
3:00 AM53 °FFog.1 mphN/A30.02 "Hg4 mi
2:00 AM53 °FFog.2 mph100%30.02 "Hg4 mi
1:00 AM49 °FFog.1 mphN/A30.04 "Hg0 mi
12:00 AM49 °FFog.1 mph100%30.04 "Hg1 mi
11:00 PM
Sep 15
52 °FFog.1 mphN/A30.03 "Hg5 mi
10:00 PM54 °FClear.1 mph100%30.03 "Hg9 mi
9:00 PM58 °FClear.1 mph94%30.01 "Hg12 mi
8:00 PM61 °FPassing clouds.2 mph87%29.99 "Hg19 mi
7:00 PM64 °FPassing clouds.3 mph78%29.98 "Hg22 mi
6:00 PM66 °FScattered clouds.3 mph74%29.98 "Hg22 mi
Weather by CustomWeather, © 2014

See weather overviewHow to use our weather pages